Regional Weather Roundup
Issued by NWS Northern Indiana

Home | Current Version | Previous Version | Text Only | Print | Product List | Glossary Off
Versions: 1 2 3 4 5 6 7 8 9 10 11 12 13 14 15 16 17 18 19 20 21 22 23 24 25 26 27 28 29 30 31 32 33 34 35 36 37 38 39 40 41 42 43 44 45 46 47 48 49 50

000
ASUS43 KIWX 021600
RWRIWX

KIWX WEATHER ROUNDUP
NATIONAL WEATHER SERVICE NORTHERN INDIANA
1200 PM EDT THU JUL 02 2015

NOTE: "FAIR" INDICATES FEW OR NO CLOUDS BELOW 12,000 FEET WITH NO
SIGNIFICANT WEATHER AND/OR OBSTRUCTIONS TO VISIBILITY.

* THESE STATIONS ARE NOT UNDER NWS QUALITY CONTROL. THEY ALSO MAY NOT
  REPORT WEATHER SUCH AS PRECIPITATION OR FOG.

INZ001>027-021700-
NORTHERN INDIANA

CITY           SKY/WX    TMP DP  RH WIND       PRES   REMARKS
GARY*          PTSUNNY   66  59  77 N14       30.01R
SOUTH BEND     MOSUNNY   70  55  59 NE7       29.99R
ELKHART*       MOSUNNY   68  55  64 E7        29.99S
GOSHEN         MOSUNNY   69  58  67 E10       29.99R
ANGOLA*          N/A     68  57  68 E9        30.00S
FORT WAYNE     PTSUNNY   69  62  78 NE14      29.98R
PERU/GRISSOM   MOSUNNY   70  62  75 NE10      29.94F

$$
INZ028>050-021700-
CENTRAL INDIANA

CITY           SKY/WX    TMP DP  RH WIND       PRES   REMARKS
LAFAYETTE      CLOUDY    65  58  78 NE6       29.95S
KOKOMO*        MOSUNNY   70  61  73 E8        29.94S
MUNCIE*        PTSUNNY   72  61  68 E12       29.94S
INDIANAPOLIS   MOSUNNY   73  59  61 NE8       29.90F

$$
MIZ043>046-050>051-056>058-064>065-071>073-077>080-021700-
SOUTHWEST LOWER MICHIGAN

CITY           SKY/WX    TMP DP  RH WIND       PRES   REMARKS
BATTLE CREEK   PTSUNNY   68  57  68 NE10      30.02F
BENTON HARBOR  MOSUNNY   70  55  59 NE9       29.99F
COLDWATER*     PTSUNNY   66  55  67 NE10      30.01S
HILLSDALE*     MOSUNNY   65  58  77 NE5       30.02F
HOLLAND        PTSUNNY   68  57  68 E7        30.03S
GRAND RAPIDS   PTSUNNY   66  56  70 E8        30.03F
KALAMAZOO      PTSUNNY   65  55  70 NE8       30.03S
STURGIS*       MOSUNNY   66  57  72 NE13      30.00R
THREE RIVERS*  FAIR      66  56  70 NE10      30.01S

$$
OHZ001>008-015>018-024>025-021700-
NORTHWEST OHIO

CITY           SKY/WX    TMP DP  RH WIND       PRES   REMARKS
DEFIANCE       PTSUNNY   70  59  68 E8        29.99S
FINDLAY        CLOUDY    69  60  73 E12       29.98R
TOLEDO EXPRESS CLOUDY    69  57  65 E10       30.00R
TOLEDO METCALF   N/A    N/A N/A N/A MISG      30.01R
LIMA           MOSUNNY   70  63  78 NE10      29.96S

$$
AND FOR LAKE MICHIGAN COASTAL AND OPEN LAKE BUOY OBSERVATIONS

STATION/POSITION TEMP    WIND        PRES    VSBY  WAVE
                 AIR SEA DIR/SP/G                  HT/PER
                 (F)     (DEG/KT/KT) (MB)    (MI)  (FT/S)
CALUMET HARBOR    61     360/ 11/ 15   N/A
MICHIGAN CITY     60      10/ 12/ 14   N/A
BURNS HARBOR      62      40/ 12/ 13 1016.3S
SAINT JOSEPH      58     350/  8/ 13   N/A
4 MI NW BRIDGMAN  59 63                N/A           2/ 4
MICHIGAN CITY     61 64   40/ 12/ 14   N/A           2/ 5

$$
&&


USA.gov is the U.S. government's official web portal to all federal, state and local government web resources and services.